Content
SEND FEEDBACK

Daily
Averages
Monthly
Summary
Canada

QUEBEC CITY, QUEBEC


Home > North America > Canada > Quebec
Elevation: 239 feet     Latitude: 46 48N     Longitude: 071 23W

WEATHER
 
SELECT A DAY
Number of Records: 192,604;   Date Range: 6/30/96 - 8/31/14
 
SHARE

PRINT THIS DATA

[ ← Previous Day ]
WEATHER ALMANAC - MAY 14, 2013
[ Next Day → ]
[ °C ]   °F
Weather ElementAverageHighLow
Temperature43.1 °F55.4 °F (5:00 pm)31 °F (5:00 am)
Dewpoint31.4 °F35 °F (5:00 pm)26.6 °F (4:00 pm)
Humidity64.7 %96 % (2:00 am)34 % (5:00 pm)
Barometer30.02 in30.07 in (8:00 am)29.95 in (5:00 pm)
Wind Speed7.4 mph13.8 mph (8:00 pm)
Wind Gust19.6 mph (11:00 am)
Weather ElementAverage
Visibility27.8 mi
Wind DirectionSSW (208 °)

Weather ElementTotal
Precipitation---
Heating Degree Days21.8 (Base 65)
Averaged from 30 records on May 14, 2013
WEATHER CONDITIONS BREAKOUT
WIND DIRECTION BREAKOUT
WEATHER BY HOUR - MAY 14, 2013
[ °C ]   °F
Local TimeTemperatureDewpointHumidityBarometerVisibilityWind DirectionWind SpeedGust SpeedPrecipitationEventsConditions
1:00 AM35.6 °F33.8 °F93 %30.01 in15.0 miSSW (210°)5.8 mphMostly Cloudy
2:00 AM33.0 °F32.0 °F96 %30.00 inWest (280°)4.6 mph
2:00 AM33.8 °F32.0 °F93 %30.00 in15.0 miWest (270°)9.2 mphPartly Cloudy
3:00 AM33.8 °F30.2 °F87 %30.01 in15.0 miWest (270°)8.1 mphPartly Cloudy
4:00 AM33.8 °F30.2 °F87 %30.02 in15.0 miWSW (240°)3.5 mphPartly Cloudy
5:00 AM31.0 °F29.0 °F88 %30.03 inWest (260°)2.3 mph
5:00 AM32.0 °F28.4 °F87 %30.04 in15.0 miWSW (240°)4.6 mphPartly Cloudy
6:00 AM32.0 °F30.2 °F93 %30.05 in40.0 miSW (220°)8.1 mphPartly Cloudy
7:00 AM35.6 °F30.2 °F81 %30.06 in40.0 miWSW (250°)9.2 mphPartly Cloudy
8:00 AM40.0 °F33.0 °F66 %30.06 inWSW (250°)9.2 mph
8:00 AM39.2 °F32.0 °F75 %30.07 in40.0 miWest (260°)12.7 mphPartly Cloudy
9:00 AM41.0 °F30.2 °F65 %30.06 in40.0 miWest (270°)10.4 mphPartly Cloudy
10:00 AM44.6 °F30.2 °F57 %30.05 in40.0 miNW (320°)9.2 mphPartly Cloudy
11:00 AM47.0 °F31.0 °F42 %30.02 inWNW (300°)6.9 mph
11:00 AM44.6 °F30.2 °F57 %30.04 in40.0 miWest (270°)8.1 mph19.6 mphMostly Cloudy
12:00 PM48.2 °F30.2 °F50 %30.03 in40.0 miWNW (300°)9.2 mphMostly Cloudy
1:00 PM51.8 °F28.4 °F41 %30.02 in30.0 miWest (270°)8.1 mphMostly Cloudy
2:00 PM51.8 °F30.2 °F44 %30.01 in30.0 miNW (320°)5.8 mphMostly Cloudy
3:00 PM53.6 °F30.2 °F41 %30.01 in30.0 miSW (220°)8.1 mphMostly Cloudy
4:00 PM53.6 °F26.6 °F35 %29.99 in30.0 miCalmScattered Clouds
5:00 PM55.0 °F35.0 °F34 %29.95 inEast (80°)6.9 mph
5:00 PM55.4 °F32.0 °F41 %29.98 in30.0 miEast (80°)9.2 mph17.3 mphScattered Clouds
6:00 PM51.8 °F33.8 °F50 %29.97 in30.0 miENE (70°)12.7 mphScattered Clouds
7:00 PM50.0 °F32.0 °F50 %29.98 in30.0 miEast (80°)12.7 mphPartly Cloudy
8:00 PM48.0 °F35.0 °F48 %29.97 inEast (80°)6.9 mph
8:00 PM48.2 °F32.0 °F54 %29.99 in30.0 miENE (70°)13.8 mphPartly Cloudy
9:00 PM46.4 °F33.8 °F62 %30.00 in15.0 miNE (50°)5.8 mphPartly Cloudy
10:00 PM44.6 °F32.0 °F61 %30.01 in15.0 miENE (60°)4.6 mphPartly Cloudy
11:00 PM37.0 °F35.0 °F87 %30.01 inNW (310°)2.3 mph
11:00 PM41.0 °F33.8 °F76 %30.01 in15.0 miNNW (340°)4.6 mphClear
Hourly data recorded from CYQB, located miles away from Quebec City, Quebec







STORIES FROM OUR PARTNERS